THORAD DELTA 1 DEB, 8170

Orbit data source: Space-Track

THORAD DELTA 1 DEB, 8170 is space debris in SSO originally from a launch on Fri, 15 Nov 1974 UTC launched from the Air Force Western Test Range (AFWTR). Debris objects in space refer to the collection of defunct objects orbiting the Earth. Examples of debris include non-operational satellites, rocket bodies, and fragments generated from explosions, collisions, or faulty payload assembly.

Loading next visibility...
Identifier
8170, 1974-089AL
Orbit
SSO
Last TLE update
12 hours ago
Origin
Manufacturer
Unknown
Mission
Spacecraft
Bus & Motor
Unknown
Mass
Unknown
Launch date (UTC)
1974-11-15 (50 years ago)
Launch vehicle
Unknown
Launch site
Air Force Western Test Range (AFWTR)
Object type
Payload
Rocket body
Debris
Shape & HBR
Unknown
Radar Cross Section
Small (<0.1 m²)

Expand to show TLE details & history

TLE from 12 hours ago
0 THORAD DELTA 1 DEB
1 08170U 74089AL  25128.71337395  .00018630  00000-0  10968-1 0  9993
2 08170 101.6232  40.5138 0077758   3.2030  68.0335 14.06484858432806
Epoch: 2025-05-08T17:07Z
Definitive object data (Epoch: 2025-05-08T17:07:15.509Z)
Latitude
68.8168°
Longitude
-114.94911°
Altitude
862.473 km
Speed
7.438 km/s
True Right ascension
00h 34m 34s
True Declination
68° 42' 08"
Sunlit
Object was in daylight at TLE epoch
Visualization TLE readout
Latitude
57.60984°
Longitude
-101.26219°
Altitude
850.303 km
Speed
7.449 km/s
Apparent Right ascension
01h 18m 09s
Apparent Declination
12° 54' 22"
Sunlit
Object is in daylight
Visualization observer readout
Local Sidereal Time
13:09:19
Azimuth
357.297° N
Elevation
-37.138°
Doppler factor
1
Orbital elements
Apogee altitude
925.113 km
Perigee altitude
812.412 km
Semi-major axis
7,246.9 km
Eccentricity
0.0077758
Inclination
101.6232°
RAAN
40.5138°
Arg. of periapsis
3.203°
True anomaly
68.86284°
Mean anomaly
68.0335°
Eccentric anomaly
68.44787°
Mean motion
3.51815 °/min
BSTAR
0.010968
Orbital period
102.33 mins
Loading maneuver chart data...
Loading SW <> Apogee altitude chart data...
Loading historical data...
Loading historical data...
Loading historical data...
Loading historical data...
Loading historical data...
Loading historical data...
Loading historical data...

THORAD DELTA 1 DEB Visibility forecast

Observer location: undefined°, undefined°

Span
Click to sort rows by Start time (UTC) header in descending order
Start Az.
Max El. time (UTC)
Max El. Az.
Max El.
End time (UTC)
End Az.
11 mins2025-05-09 07:00:43.485Z21.042° NNE2025-05-09 07:05:43.485Z76.805° E43.851°2025-05-09 07:11:43.485Z192.62° SSW
6 mins2025-05-09 08:43:43.485Z331.861° NNW2025-05-09 08:45:43.485Z308.57° NW16.53°2025-05-09 08:49:43.485Z264.325° W
7 mins2025-05-09 16:50:43.485Z106.868° ESE2025-05-09 16:53:43.485Z64.264° ENE23.616°2025-05-09 16:57:43.485Z10.439° NNE
8 mins2025-05-09 18:30:43.485Z194.315° SSW2025-05-09 18:34:43.485Z266.32° W33.296°2025-05-09 18:38:43.485Z324.52° NNW
|